Wind_Speed
5 5 5 5 5 6 6 5 4 4 5 5 5 6 6 6 7 7 6 6 5 5 6 7 7 7 6 6 6 6 6 6 6 5 5 5 5 4 4 3 3 3 3 2
5 5 5 5 6 6 5 4 4 4 5 5 5 6 6 6 6 5 4 4 4 5 6 7 7 6 6 6 5 6 6 5 5 5 5 5 5 4 3 4 3 3 3 2
6 5 6 5 6 5 5 5 5 5 4 5 5 5 5 4 4 4 4 4 4 4 5 7 7 6 6 6 5 6 6 6 6 6 5 5 4 4 4 4 3 3 3 2
6 6 6 6 6 6 6 6 5 5 5 6 6 6 4 4 4 4 4 4 4 4 5 6 6 6 6 6 6 6 6 6 6 6 6 5 4 3 4 4 3 3 3 3
6 6 6 6 6 6 7 7 6 6 6 7 6 6 4 4 4 4 4 4 3 4 5 5 5 6 6 6 6 5 6 6 6 7 6 6 5 4 4 4 4 3 3 3
8 7 7 6 6 7 7 8 8 8 7 6 5 5 4 4 4 4 5 4 3 3 4 5 5 5 6 6 6 6 6 6 7 7 7 7 6 6 6 6 4 4 4 3
8 7 7 7 7 7 7 8 8 8 7 6 6 6 6 5 4 4 4 4 4 4 4 5 5 4 5 6 6 6 6 6 6 7 7 7 6 6 7 6 5 5 5 4
9 8 7 7 7 8 8 8 8 8 8 7 7 6 6 5 5 5 5 4 3 4 5 5 5 5 5 5 6 6 6 6 6 7 8 7 7 6 6 6 6 6 5 5
10 10 9 9 8 8 8 8 8 8 8 8 8 7 7 5 5 5 5 5 4 4 4 5 5 6 5 5 5 6 6 6 6 7 7 7 7 7 6 7 7 6 6 6
12 12 11 10 10 10 10 9 8 9 9 9 9 8 7 6 6 6 6 6 5 4 4 4 5 6 6 6 6 6 6 6 6 7 7 7 7 7 7 7 7 7 7 7
14 14 12 12 11 11 11 10 10 9 9 10 10 9 8 7 7 6 6 5 5 5 5 5 5 5 6 6 6 6 7 7 7 8 7 8 8 8 8 7 7 7 7 7
16 15 14 13 12 12 12 12 11 11 10 10 10 9 8 7 7 7 6 6 5 5 5 5 5 5 6 7 7 7 7 7 7 8 8 8 9 9 8 7 7 7 7 7
18 17 16 15 14 14 13 13 13 12 12 11 11 10 9 8 8 7 6 6 5 5 5 5 5 5 6 7 7 7 7 7 7 7 7 8 9 9 9 9 8 8 8 8
20 20 18 17 16 15 15 14 14 14 13 12 12 11 10 10 9 8 8 7 6 6 6 6 6 5 6 6 6 7 7 7 7 7 8 8 9 9 9 10 10 10 9 9
22 22 21 19 18 17 16 16 15 15 14 14 12 11 11 11 10 9 8 7 7 7 7 6 6 6 6 7 7 7 8 8 8 8 9 9 9 10 10 10 10 10 10 10
24 24 23 21 20 19 19 17 17 16 15 14 13 12 11 11 10 9 8 8 8 7 7 7 7 7 7 8 8 8 8 8 8 9 9 9 9 10 10 10 11 11 11 11
26 26 25 24 23 22 21 18 18 17 16 15 13 12 12 12 11 11 10 9 9 8 7 7 7 7 8 9 9 9 9 9 9 10 10 10 10 10 10 11 11 11 11 11
27 27 27 26 25 25 21 19 19 18 17 16 15 14 13 13 12 12 11 10 9 8 8 8 8 8 8 9 9 9 9 9 10 10 11 11 11 11 11 12 12 12 12 12
28 29 29 28 27 25 22 20 20 20 19 17 17 15 14 13 13 12 11 11 10 10 10 10 9 9 8 9 9 9 9 9 9 10 11 12 12 13 13 13 13 13 13 13
29 29 30 29 28 26 22 20 20 21 21 19 18 17 16 15 14 13 13 12 11 11 11 11 10 10 10 10 10 10 10 10 10 11 11 12 12 12 13 13 14 14 14 14
30 31 31 31 28 26 23 22 22 23 20 20 19 18 17 16 16 15 14 13 12 13 13 12 12 11 11 11 11 11 11 11 11 12 12 13 13 13 13 14 14 14 15 15
30 31 31 30 30 26 23 24 23 21 21 21 20 19 18 18 17 17 16 14 14 14 14 14 13 13 13 13 12 12 13 13 13 13 13 14 14 14 14 14 14 14 14 14
31 31 30 30 28 26 24 24 23 22 22 21 21 21 20 20 19 18 17 17 16 15 15 15 15 14 14 14 14 13 14 15 15 15 15 15 15 16 16 16 16 16 15 15
30 30 30 29 27 26 26 26 24 23 23 22 22 22 22 21 21 20 19 18 18 18 17 17 16 16 15 15 15 15 16 16 16 16 16 16 17 17 18 18 18 18 17 17
29 30 29 29 27 27 27 27 25 24 24 23 23 23 23 22 22 22 21 20 20 20 19 18 17 17 17 17 17 17 17 17 17 17 18 18 18 18 18 19 19 19 19 20
28 29 31 29 27 26 27 28 27 26 25 24 24 24 24 24 24 23 22 22 22 21 21 20 19 19 19 19 18 19 19 18 18 18 19 19 19 19 19 20 20 21 21 21
Wind_Direction
267 276 283 281 285 286 290 289 296 307 303 298 294 301 307 309 301 298 295 282 270 262 257 250 249 250 248 251 255 259 261 266 265 254 254 261 258 254 244 239 246 253 262 257
273 283 287 284 288 294 293 289 294 303 309 308 306 306 311 315 316 307 291 280 264 256 251 245 242 236 237 246 252 255 258 259 252 245 254 261 257 248 237 229 230 246 255 242
277 278 279 283 285 292 297 295 294 299 310 312 313 307 312 326 326 312 294 283 268 252 245 247 245 233 232 241 255 251 252 253 248 246 250 254 249 243 236 221 228 233 226 228
272 276 281 283 286 290 285 288 286 296 304 309 313 313 313 326 333 321 311 294 282 261 248 246 236 231 229 240 251 254 254 250 242 238 243 246 241 236 228 219 233 220 214 226
271 272 276 277 283 285 277 277 281 286 293 302 311 312 317 315 323 321 315 305 293 269 240 231 233 238 241 242 245 253 250 245 243 243 244 241 237 233 228 227 232 218 217 224
263 267 276 278 281 277 274 274 279 283 289 297 305 313 325 315 314 314 306 300 293 272 260 244 242 242 239 241 249 254 251 250 247 244 243 236 233 232 232 229 220 215 221 233
261 265 272 273 275 277 275 274 272 276 279 289 294 303 316 311 306 310 307 298 280 271 271 260 257 249 242 250 257 259 255 250 243 242 239 237 230 227 223 221 219 222 232 242
258 258 262 264 269 273 273 276 275 285 292 288 288 293 309 312 309 310 305 302 286 278 272 268 261 254 251 252 256 252 252 249 243 239 233 230 221 216 218 219 223 231 240 244
255 256 254 257 259 263 265 270 277 282 288 287 284 288 300 301 300 297 298 298 288 284 278 274 263 253 254 253 249 247 250 251 243 233 223 226 220 218 224 224 223 232 241 248
250 250 248 252 255 259 261 264 272 277 283 284 283 287 296 295 297 293 294 293 284 283 286 281 262 257 254 253 250 250 251 251 242 226 218 220 220 220 225 224 224 235 241 244
250 251 249 250 254 259 261 265 272 276 281 284 285 285 290 292 295 293 292 289 282 283 281 280 272 262 256 257 253 250 252 247 238 227 224 225 225 227 232 230 230 233 242 247
247 250 251 251 252 255 259 264 269 273 279 282 286 281 282 285 287 292 295 298 288 284 283 279 276 268 260 256 251 251 252 246 239 232 231 229 229 228 227 231 231 238 248 256
246 247 250 250 251 256 261 264 266 268 273 278 281 279 279 282 282 285 294 296 290 288 286 285 283 278 262 253 247 245 245 240 239 237 235 234 236 232 233 236 238 244 251 259
247 247 249 252 255 259 260 261 264 267 271 276 279 279 278 280 283 286 287 284 278 279 277 277 277 273 261 251 248 241 239 239 245 245 244 242 241 239 239 244 245 249 257 261
245 247 247 250 252 256 258 258 262 266 270 273 275 275 277 276 281 285 286 283 284 279 274 272 272 264 255 250 252 247 242 245 251 251 249 247 248 246 243 246 250 254 259 263
244 247 249 249 251 253 254 255 259 263 266 269 270 271 271 270 274 279 281 278 282 281 274 272 269 263 253 249 251 249 247 251 254 254 252 249 248 248 244 245 253 257 261 264
241 244 248 249 251 252 253 254 256 258 260 263 266 266 263 266 269 272 275 276 275 276 278 274 271 268 253 250 253 253 255 253 253 254 253 253 248 245 246 249 254 257 263 267
240 241 246 248 249 249 253 251 253 254 256 262 263 262 262 264 267 266 266 270 272 272 274 273 272 271 261 256 255 254 255 257 258 257 252 249 250 249 251 253 255 259 265 269
240 240 243 247 249 250 248 249 252 256 256 257 258 259 258 259 263 264 264 265 266 270 270 269 269 270 267 260 257 257 257 259 258 256 251 250 251 252 254 256 258 261 265 269
240 240 242 246 249 248 247 247 249 251 252 254 256 257 257 255 257 260 263 263 261 262 263 265 266 269 269 266 261 258 256 257 259 257 253 251 253 255 257 259 259 261 264 268
240 241 242 245 248 248 245 244 246 249 254 253 254 256 256 254 256 257 261 264 262 260 261 262 265 269 267 267 267 263 257 258 260 257 255 254 253 255 258 259 261 263 266 269
240 242 244 245 246 245 243 243 245 249 250 249 250 251 252 253 256 258 260 263 264 262 259 258 261 265 264 263 264 265 263 262 262 262 260 258 257 257 258 260 263 267 268 270
241 243 245 245 244 242 241 243 244 244 246 246 246 246 249 250 253 256 258 259 261 261 258 258 259 262 262 263 264 266 267 267 266 265 264 262 261 259 261 264 266 267 270 272
241 242 243 243 243 243 244 244 243 243 245 245 246 246 246 248 251 252 255 256 258 259 258 258 261 262 263 264 266 268 269 270 269 267 264 262 262 262 265 266 268 269 271 272
239 240 242 242 242 241 241 243 242 241 243 246 248 248 248 248 251 251 253 255 256 256 257 257 260 262 261 264 266 267 267 267 268 268 267 265 265 265 266 267 267 269 270 271
239 240 241 243 242 242 242 242 241 242 244 245 248 250 250 250 251 252 253 254 255 255 254 255 258 261 262 262 264 265 265 265 266 267 267 266 267 267 267 267 267 269 271 271
Height
5866 5867 5866 5866 5866 5865 5864 5864 5863 5863 5862 5862 5861 5860 5860 5859 5857 5856 5856 5856 5855 5856 5856 5856 5857 5857 5857 5857 5857 5858 5858 5858 5857 5858 5858 5858 5858 5858 5858 5858 5858 5858 5858 5858
5866 5865 5865 5864 5864 5864 5863 5863 5862 5862 5861 5860 5860 5859 5858 5857 5856 5855 5854 5854 5854 5854 5854 5855 5855 5855 5855 5856 5856 5856 5856 5856 5856 5856 5857 5857 5857 5857 5857 5857 5857 5857 5857 5857
5864 5864 5863 5863 5863 5862 5862 5861 5861 5860 5860 5859 5859 5858 5857 5856 5855 5854 5853 5852 5852 5852 5852 5852 5853 5853 5854 5854 5854 5854 5855 5855 5855 5855 5856 5856 5856 5856 5856 5856 5856 5856 5856 5856
5862 5862 5862 5861 5861 5861 5861 5860 5859 5859 5859 5858 5858 5857 5856 5855 5854 5853 5852 5851 5851 5850 5850 5850 5851 5851 5852 5852 5852 5853 5853 5853 5854 5854 5854 5855 5855 5855 5855 5855 5855 5855 5855 5855
5860 5860 5860 5860 5860 5859 5859 5858 5858 5858 5857 5857 5856 5855 5855 5853 5853 5852 5851 5850 5849 5849 5849 5849 5850 5850 5851 5851 5851 5851 5852 5852 5852 5853 5853 5853 5854 5854 5854 5854 5854 5854 5855 5854
5858 5858 5858 5858 5858 5858 5857 5857 5857 5856 5856 5856 5855 5854 5853 5852 5851 5851 5850 5849 5848 5848 5848 5848 5848 5849 5849 5849 5849 5850 5850 5850 5851 5851 5851 5852 5852 5852 5852 5853 5853 5853 5854 5854
5856 5856 5856 5856 5856 5856 5856 5856 5856 5855 5854 5854 5853 5852 5852 5851 5850 5849 5849 5848 5847 5847 5847 5847 5847 5847 5847 5848 5848 5848 5848 5848 5849 5849 5850 5850 5850 5851 5851 5852 5852 5852 5852 5852
5853 5854 5854 5854 5854 5854 5854 5854 5854 5854 5853 5852 5851 5850 5851 5849 5848 5848 5847 5847 5846 5846 5846 5845 5845 5846 5846 5846 5846 5846 5846 5847 5847 5847 5848 5848 5849 5849 5850 5850 5851 5851 5852 5851
5850 5851 5852 5851 5851 5852 5851 5851 5852 5851 5850 5850 5849 5849 5849 5848 5847 5847 5846 5846 5845 5844 5844 5843 5843 5844 5844 5844 5844 5845 5845 5845 5845 5845 5846 5847 5847 5848 5849 5849 5850 5850 5850 5850
5847 5848 5849 5849 5849 5849 5849 5849 5849 5849 5848 5848 5847 5847 5847 5846 5846 5845 5845 5844 5844 5843 5842 5842 5842 5842 5842 5842 5843 5843 5843 5843 5843 5844 5844 5845 5846 5847 5847 5848 5848 5848 5849 5849
5843 5845 5846 5846 5846 5846 5847 5847 5846 5846 5846 5846 5845 5847 5845 5844 5844 5843 5843 5842 5842 5841 5841 5840 5840 5840 5840 5840 5841 5841 5841 5841 5842 5842 5843 5844 5844 5845 5845 5846 5846 5847 5847 5847
5839 5840 5841 5843 5843 5843 5843 5843 5844 5844 5844 5843 5843 5846 5843 5842 5842 5841 5841 5840 5840 5839 5839 5839 5838 5838 5838 5838 5839 5839 5840 5840 5840 5841 5841 5842 5842 5843 5844 5844 5845 5845 5845 5845
5834 5836 5837 5838 5841 5840 5839 5840 5840 5841 5841 5840 5841 5843 5840 5840 5839 5839 5839 5838 5838 5838 5837 5837 5836 5836 5836 5836 5837 5838 5838 5838 5839 5839 5840 5840 5841 5841 5842 5842 5843 5843 5843 5843
5829 5831 5833 5835 5835 5836 5836 5836 5837 5837 5837 5837 5838 5839 5838 5837 5837 5837 5837 5836 5836 5836 5835 5835 5834 5834 5834 5835 5835 5836 5836 5837 5837 5837 5838 5838 5839 5839 5840 5840 5840 5841 5841 5841
5824 5825 5827 5829 5830 5831 5831 5832 5833 5833 5834 5834 5835 5835 5835 5834 5834 5834 5834 5834 5833 5833 5833 5833 5833 5832 5833 5833 5833 5834 5834 5835 5835 5835 5836 5836 5836 5837 5837 5838 5838 5839 5839 5838
5818 5820 5821 5823 5825 5826 5826 5827 5828 5829 5830 5830 5831 5831 5831 5831 5831 5831 5831 5831 5831 5831 5831 5831 5830 5830 5831 5831 5831 5831 5832 5832 5833 5833 5833 5833 5834 5834 5835 5835 5836 5836 5836 5836
5811 5813 5815 5817 5819 5819 5821 5823 5824 5825 5825 5826 5826 5828 5827 5828 5828 5828 5828 5828 5828 5829 5829 5828 5828 5828 5828 5828 5829 5829 5829 5830 5830 5830 5831 5831 5831 5832 5832 5832 5833 5833 5833 5833
5805 5807 5808 5810 5813 5813 5819 5819 5819 5820 5821 5821 5822 5823 5824 5824 5825 5825 5825 5825 5825 5826 5826 5826 5826 5826 5826 5826 5826 5826 5827 5827 5827 5827 5827 5828 5828 5829 5829 5829 5830 5830 5830 5829
5797 5799 5801 5803 5804 5807 5811 5813 5814 5815 5816 5817 5817 5818 5819 5820 5821 5821 5822 5822 5822 5823 5823 5823 5823 5823 5823 5823 5823 5824 5824 5824 5824 5824 5824 5825 5825 5826 5826 5826 5826 5826 5826 5826
5789 5791 5794 5795 5797 5800 5807 5808 5808 5809 5810 5812 5813 5814 5815 5816 5817 5818 5818 5818 5819 5819 5819 5819 5819 5820 5820 5820 5820 5821 5821 5821 5821 5821 5821 5822 5822 5822 5822 5822 5822 5822 5822 5822
5781 5783 5785 5788 5789 5793 5799 5801 5802 5804 5806 5807 5807 5809 5810 5811 5813 5814 5814 5814 5815 5815 5815 5816 5816 5816 5816 5816 5817 5817 5817 5818 5818 5818 5818 5818 5818 5818 5819 5819 5819 5818 5818 5818
5773 5775 5777 5780 5783 5789 5792 5793 5795 5797 5799 5800 5802 5803 5805 5806 5807 5808 5809 5809 5810 5811 5811 5812 5812 5812 5812 5813 5813 5813 5813 5813 5813 5814 5814 5814 5814 5814 5814 5815 5814 5814 5814 5814
5765 5768 5770 5774 5778 5781 5783 5785 5787 5789 5792 5794 5795 5797 5799 5800 5801 5803 5804 5804 5805 5806 5806 5807 5807 5808 5808 5808 5809 5809 5808 5808 5808 5809 5809 5809 5809 5810 5810 5810 5810 5810 5809 5809
5757 5759 5762 5765 5769 5773 5775 5777 5780 5782 5785 5787 5788 5790 5792 5794 5796 5797 5798 5799 5800 5800 5801 5802 5802 5803 5803 5803 5803 5804 5803 5803 5803 5804 5804 5804 5804 5804 5804 5805 5805 5804 5804 5804
5749 5751 5753 5757 5761 5764 5767 5769 5772 5775 5777 5779 5781 5783 5785 5787 5789 5790 5791 5792 5793 5794 5795 5796 5797 5797 5798 5798 5798 5798 5798 5798 5798 5798 5798 5799 5799 5799 5799 5799 5799 5799 5799 5798
5741 5744 5746 5750 5754 5757 5760 5762 5765 5767 5770 5772 5774 5776 5778 5780 5781 5783 5784 5785 5786 5787 5788 5789 5790 5791 5791 5791 5792 5792 5792 5792 5792 5793 5793 5793 5793 5793 5793 5793 5793 5793 5793 5792